Location: Diati
(11.8376°N, 2.5966°E)
Time: 17:33:19
(UTC+00:00)

Cosmos 372 Rocket - Pass Details

Date: 21 September 2020
Orbit: 739 x 767 km, 74.1° (Epoch: 19 October)

Event Time Altitude Azimuth Distance (km) Brightness Sun altitude
Rises 18:10:13 0° 198° (SSW) 3,222 7.4 -6.7°
Reaches altitude 10° 18:12:35 10° 200° (SSW) 2,298 6.7 -7.3°
Maximum altitude 18:17:47 69° 283° (WNW) 819 4.4 -8.6°
Drops below altitude 10° 18:22:58 10° 6° (N) 2,296 6.4 -9.9°
Sets 18:25:21 0° 9° (N) 3,220 7.2 -10.4°
